Regional Weather Roundup
Issued by NWS

Home | Current Version | Previous Version | Graphics & Text | Print | Product List | Glossary On
Versions: 1 2 3 4 5 6 7 8 9 10 11 12 13 14 15 16 17 18 19 20 21 22 23 24 25 26 27 28 29 30 31 32 33 34 35 36 37 38 39 40 41 42 43 44 45 46 47 48 49 50
000
ASUS43 KLOT 241810
RWRIL

ILLINOIS REGIONAL WEATHER ROUNDUP
NATIONAL WEATHER SERVICE CHICAGO/ROMEOVILLE IL
100 PM CDT THU JUL 24 2014

NOTE: "FAIR" INDICATES FEW OR NO CLOUDS BELOW 12,000 FEET WITH NO
SIGNIFICANT WEATHER AND/OR OBSTRUCTIONS TO VISIBILITY.

* THESE STATIONS ARE NOT UNDER NWS QUALITY CONTROL. THEY ALSO MAY NOT
  REPORT WEATHER SUCH AS PRECIPITATION OR FOG.

ILZ001-002-007-009-015-016-024-241900-
NORTHWEST ILLINOIS

CITY           SKY/WX    TMP DP  RH WIND       PRES   REMARKS
MOLINE         SUNNY     77  54  44 E7        30.17S
6HR MIN TEMP:  58; 6HR MAX TEMP:  77;

STERLING*      SUNNY     75  55  50 E10       30.17S
SAVANNA*       SUNNY     77  51  40 NE3       30.16S
$$

ILZ003-004-008-010-011-017-018-241900-
NORTH CENTRAL ILLINOIS

CITY           SKY/WX    TMP DP  RH WIND       PRES   REMARKS
ROCKFORD       MOSUNNY   75  50  41 NE6       30.17F
6HR MIN TEMP:  59; 6HR MAX TEMP:  76;

FREEPORT*      SUNNY     71  53  52 CALM      30.19F
ROCHELLE*      SUNNY     74  50  41 NE9       30.17F
DE KALB*       SUNNY     72  51  48 N9        30.17F
PERU*          SUNNY     75  54  49 NE7       30.15F
$$

ILZ005-006-012>014-019>023-241900-
NORTHEAST ILLINOIS

CITY           SKY/WX    TMP DP  RH WIND       PRES   REMARKS
CHICAGO-OHARE  MOSUNNY   73  46  38 NE9       30.17S
6HR MIN TEMP:  59; 6HR MAX TEMP:  73;

CHICAGO-MIDWAY MOSUNNY   73  48  41 N12       30.16F
6HR MIN TEMP:  63; 6HR MAX TEMP:  74;

AURORA         SUNNY     74  49  41 NE7G17    30.16F
6HR MIN TEMP:  56; 6HR MAX TEMP:  75;

LANSING*       MOSUNNY   70  52  52 NE8       30.16F
JOLIET*        SUNNY     73  49  41 NE12G17   30.16F
WAUKEGAN       SUNNY     69  48  47 NE9       30.17F
6HR MIN TEMP:  57; 6HR MAX TEMP:  70;

DUPAGE AIRPORT SUNNY     74  48  39 NE10G20   30.16F
6HR MIN TEMP:  58; 6HR MAX TEMP:  75;

KANKAKEE*      MOSUNNY   74  56  55 NE8       30.15F
WHEELING       SUNNY     72  46  39 N8        30.18F
6HR MIN TEMP:  59; 6HR MAX TEMP:  73;

MORRIS*        MOSUNNY   75  53  46 E6        30.15F
ROMEOVILLE*    SUNNY     73  47  39 N13       30.16F
$$

LMZ740>746-241900-
SOUTHERN LAKE MICHIGAN

STATION/POSITION SKY/WX   TEMP    WIND        PRES    VSBY  WAVE
                          AIR SEA DIR/SP/G                  HT/PER
                          (F)     (DEG/KT/KT) (MB)    (MI)  (FT/S)
SOUTHERN BUOY              60 61  330/  6/  8 1022.1S         1/ 3
WAUKEGAN HARBOR            62      70/  6/  6   N/A
HARRISON CRIB              62     360/  8/  9   N/A
BURNHAM HARBOR             65      10/  9/ 10   N/A
CALUMET HARBOR             66     350/  7/ 12 1020.6R
MICHIGAN CITY              67     350/ 12/ 14   N/A
MICHIGAN CITY 6N           65 69   10/ 10/ 14   N/A           3/ 2
ST. JOSEPH                 57 51  330/  8/ 10   N/A           2/ 2
$$

ILZ025>027-034>036-040-047-049-050-058-095>099-241900-
WEST-CENTRAL ILLINOIS

CITY           SKY/WX    TMP DP  RH WIND       PRES   REMARKS
QUINCY         SUNNY     76  54  46 E5        30.16F
GALESBURG*     MOSUNNY   80  56  43 N3        30.18R HX  80
MACOMB*        MOSUNNY   74  54  49 CALM      30.20S
JACKSONVILLE*  SUNNY     76  54  45 NE7       30.17F
PITTSFIELD*    SUNNY     76  54  46 NE5       30.17F
$$

ILZ028>032-037-038-041>044-048-051>054-059>061-241900-
CENTRAL ILLINOIS

CITY           SKY/WX    TMP DP  RH WIND       PRES   REMARKS
PONTIAC        MOSUNNY   75  55  50 NE12      30.15F
DECATUR          N/A     75  57  53 NE7       30.14F
PEORIA         SUNNY     77  52  41 NE8       30.15F
6HR MIN TEMP:  61; 6HR MAX TEMP:  79;

LACON*         SUNNY     74  53  46 E7        30.14F
LINCOLN*       SUNNY     76  54  46 NE14      30.11F
SPRINGFIELD    SUNNY     77  54  44 N10       30.15S
6HR MIN TEMP:  59; 6HR MAX TEMP:  77;

TAYLORVILLE    MOSUNNY   72  55  56 NE7       30.14S
$$

ILZ033-039-045-046-055>057-062-063-241900-
EAST-CENTRAL ILLINOIS

CITY           SKY/WX    TMP DP  RH WIND       PRES   REMARKS
CHAMPAIGN      MOSUNNY   75  56  51 N10       30.14F
DANVILLE*      MOSUNNY   72  58  60 N8        30.10F
RANTOUL*       SUNNY     76  53  44 NE9       30.15S
MATTOON        MOSUNNY   75  57  53 N8        30.12S
PARIS*         MOSUNNY   75  60  58 NE7       30.12F
$$

ILZ079-100>102-241900-
SOUTHWEST ILLINOIS

CITY           SKY/WX    TMP DP  RH WIND       PRES   REMARKS
ALTON          MOSUNNY   75  55  50 NE8       30.13F
BELLEVILLE     MOSUNNY   78  60  54 NE9       30.11F
CAHOKIA*       SUNNY     80  54  40 NE14      30.12F HX  80
SPARTA*        MOSUNNY   75  61  60 NE10      30.11F
$$

ILZ064>066-069>071-074>076-080>082-084>086-088>090-092>094-241900-
SOUTH-CENTRAL ILLINOIS

CITY           SKY/WX    TMP DP  RH WIND       PRES   REMARKS
CARBONDALE     PTSUNNY   77  61  57 VRB7      30.09F
6HR MIN TEMP:  57; 6HR MAX TEMP:  77;

CAIRO*         MOSUNNY   79  62  56 N12G17    30.08R HX  80
EFFINGHAM*     MOSUNNY   76  54  45 N8        30.12F
MARION         PTSUNNY   75  63  64 N6        30.10S
MT. VERNON     PTSUNNY   75  59  57 NE6       30.11F
CENTRALIA*     MOSUNNY   77  56  48 NE8       30.10F
SALEM*         MOSUNNY   79  59  50 NE5       30.11F HX  80
METROPOLIS*    MOSUNNY   78  59  53 NE7       30.06S
$$

ILZ067-068-072-073-078-083-087-091-241900-
SOUTHEAST ILLINOIS

CITY           SKY/WX    TMP DP  RH WIND       PRES   REMARKS
LAWRENCEVILLE  MOSUNNY   75  60  59 N10       30.10S
FLORA*         SUNNY     76  57  52 NE6       30.11S
FAIRFIELD*     MOSUNNY   77  63  61 N7        30.10S
HARRISBURG*    MOSUNNY   76  62  62 NE8       30.10S
ROBINSON*      MOSUNNY   77  59  54 NE6       30.11S
CARMI*         MOSUNNY   77  63  61 N10       30.08R
$$

ABBREVIATIONS USED IN REMARKS
   TC - TEMPERATURE IN CELSIUS
  WCI - WIND CHILL INDEX
   HX - HEAT INDEX
  VSB - VISIBILITY
$$




USA.gov is the U.S. government's official web portal to all federal, state and local government web resources and services.